{"data":{"norad_id":65530,"intl_designator":"2025-200L","name":"STARLINK-35152","alt_names":[],"object_type":"PAYLOAD","status":"ACTIVE","operator":null,"country":"US","launch_date":"2025-09-06","launch_site_code":"AFWTR","launch_vehicle":null,"mission":null,"orbit_class":"UNKNOWN","rcs_meters":null,"size_class":null,"mass_kg":null,"dimensions":null,"purposes":["comms"],"wikipedia_slug":null,"has_3d_model":false,"image_url":null,"decayed_at":null,"tle_current":{"epoch":"2026-05-25T03:05:45.295008Z","epoch_age_seconds":54083,"freshness":"FRESH","line1":"1 65530U 25200L   26145.12899647 -.00004344  00000+0 -29726-3 0  9997","line2":"2 65530  97.4495 214.7904 0001264 247.8439 112.2654 15.05637968 40630","mean_motion":15.05637968,"eccentricity":0.0001264,"inclination_deg":97.4495,"raan_deg":214.7904,"arg_perigee_deg":247.8439,"mean_anomaly_deg":112.2654,"bstar":-0.00029726,"rev_number":4063,"period_min":95.640521201309,"perigee_km":548.67240186028,"apogee_km":550.42372064376,"semimajor_km":6927.685061252,"source":"CELESTRAK","updated_at":"2026-05-25T13:38:20.848249Z"}}}